Location: Asheville, NC
(35.6000°N, 82.5500°W)
Time: 07:29:13
(UTC-04:00)

UWE-3 - Pass Details

Date: 12 February 2018
Orbit: 587 x 683 km, 97.6° (Epoch: 22 May)

Event Time Altitude Azimuth Distance (km) Brightness Sun altitude
Rises 19:25:56 0° 170° (S) 3,012 ? -16.1°
Reaches altitude 10° 19:28:10 10° 172° (S) 2,108 ? -16.6°
Maximum altitude 19:32:48 78° 259° (WSW) 701 ? -17.5°
Drops below altitude 10° 19:37:28 10° 345° (NNW) 2,127 ? -18.5°
Sets 19:39:43 0° 347° (NNW) 3,042 ? -18.9°
